Time,TemperatureF,DewpointF,PressureIn,WindDirection,WindDirectionDegrees,WindSpeedMPH,WindSpeedGustMPH,Humidity,HourlyPrecipIn,Conditions,Clouds,dailyrainin,SoftwareType,DateUTC
2013-04-21 00:01:00,34.1,25.3,30.40,North,9,4.0,4.0,70,0.00,,,0.00,Wunderground v.1.15,2013-04-21 04:01:00,
2013-04-21 00:02:00,34.1,25.3,30.40,NNW,336,1.0,4.0,70,0.00,,,0.00,Wunderground v.1.15,2013-04-21 04:02:00,
2013-04-21 00:04:00,34.1,25.3,30.40,NW,312,0.0,6.0,70,0.00,,,0.00,Wunderground v.1.15,2013-04-21 04:04:00,
2013-04-21 00:09:00,34.0,25.2,30.41,NW,323,2.0,6.0,70,0.00,,,0.00,Wunderground v.1.15,2013-04-21 04:09:00,
2013-04-21 00:14:00,33.9,25.1,30.41,North,350,3.0,4.0,70,0.00,,,0.00,Wunderground v.1.15,2013-04-21 04:14:00,
2013-04-21 00:16:00,33.9,25.1,30.41,NW,325,6.0,6.0,70,0.00,,,0.00,Wunderground v.1.15,2013-04-21 04:16:00,
2013-04-21 00:21:00,33.8,25.0,30.41,North,355,1.0,5.0,70,0.00,,,0.00,Wunderground v.1.15,2013-04-21 04:21:00,
2013-04-21 00:26:00,33.8,25.4,30.42,NW,323,2.0,6.0,71,0.00,,,0.00,Wunderground v.1.15,2013-04-21 04:26:00,
2013-04-21 00:32:00,33.7,25.3,30.42,NNW,344,0.0,3.0,71,0.00,,,0.00,Wunderground v.1.15,2013-04-21 04:32:00,
2013-04-21 00:37:00,33.6,25.2,30.42,NW,319,3.0,6.0,71,0.00,,,0.00,Wunderground v.1.15,2013-04-21 04:37:00,
2013-04-21 00:43:00,33.5,25.1,30.42,NNW,338,2.0,6.0,71,0.00,,,0.00,Wunderground v.1.15,2013-04-21 04:43:00,
2013-04-21 00:48:00,33.4,25.0,30.42,NE,44,5.0,6.0,71,0.00,,,0.00,Wunderground v.1.15,2013-04-21 04:48:00,
2013-04-21 00:54:00,33.3,24.9,30.42,West,279,6.0,6.0,71,0.00,,,0.00,Wunderground v.1.15,2013-04-21 04:54:00,
2013-04-21 00:59:00,33.3,24.6,30.43,NNW,336,3.0,6.0,70,0.00,,,0.00,Wunderground v.1.15,2013-04-21 04:59:00,
2013-04-21 01:04:00,33.3,24.6,30.43,NW,306,5.0,8.0,70,0.00,,,0.00,Wunderground v.1.15,2013-04-21 05:04:00,
2013-04-21 01:09:00,33.3,24.6,30.43,NNW,348,2.0,8.0,70,0.00,,,0.00,Wunderground v.1.15,2013-04-21 05:09:00,
2013-04-21 01:14:00,33.2,24.8,30.43,NNW,327,1.0,10.0,71,0.00,,,0.00,Wunderground v.1.15,2013-04-21 05:14:00,
2013-04-21 01:20:00,33.2,24.8,30.44,WNW,293,4.0,4.0,71,0.00,,,0.00,Wunderground v.1.15,2013-04-21 05:20:00,
2013-04-21 01:25:00,33.1,24.4,30.43,NW,315,2.0,9.0,70,0.00,,,0.00,Wunderground v.1.15,2013-04-21 05:25:00,
2013-04-21 01:30:00,33.1,24.4,30.44,West,274,3.0,3.0,70,0.00,,,0.00,Wunderground v.1.15,2013-04-21 05:30:00,
2013-04-21 01:35:00,33.2,23.8,30.44,North,360,6.0,7.0,68,0.00,,,0.00,Wunderground v.1.15,2013-04-21 05:35:00,
2013-04-21 01:40:00,33.3,23.9,30.44,WNW,286,3.0,4.0,68,0.00,,,0.00,Wunderground v.1.15,2013-04-21 05:40:00,
2013-04-21 01:46:00,33.4,24.0,30.44,WSW,240,2.0,6.0,68,0.00,,,0.00,Wunderground v.1.15,2013-04-21 05:46:00,
2013-04-21 01:52:00,33.3,23.9,30.44,WNW,302,4.0,8.0,68,0.00,,,0.00,Wunderground v.1.15,2013-04-21 05:52:00,
2013-04-21 01:57:00,33.3,23.5,30.44,NNW,327,2.0,8.0,67,0.00,,,0.00,Wunderground v.1.15,2013-04-21 05:57:00,
2013-04-21 02:02:00,33.2,23.4,30.44,NNE,15,6.0,6.0,67,0.00,,,0.00,Wunderground v.1.15,2013-04-21 06:02:00,
2013-04-21 02:07:00,33.2,23.4,30.45,WNW,296,1.0,6.0,67,0.00,,,0.00,Wunderground v.1.15,2013-04-21 06:07:00,
2013-04-21 02:12:00,33.2,23.8,30.45,NNW,331,1.0,6.0,68,0.00,,,0.00,Wunderground v.1.15,2013-04-21 06:12:00,
2013-04-21 02:17:00,33.2,23.4,30.45,NW,323,2.0,8.0,67,0.00,,,0.00,Wunderground v.1.15,2013-04-21 06:17:00,
2013-04-21 02:22:00,33.2,23.1,30.45,WNW,293,7.0,8.0,66,0.00,,,0.00,Wunderground v.1.15,2013-04-21 06:22:00,
2013-04-21 02:27:00,33.3,23.2,30.45,WNW,298,5.0,10.0,66,0.00,,,0.00,Wunderground v.1.15,2013-04-21 06:27:00,
2013-04-21 02:32:00,33.2,23.1,30.45,NNW,330,5.0,8.0,66,0.00,,,0.00,Wunderground v.1.15,2013-04-21 06:32:00,
2013-04-21 02:37:00,33.1,23.0,30.45,WNW,286,4.0,9.0,66,0.00,,,0.00,Wunderground v.1.15,2013-04-21 06:37:00,
2013-04-21 02:42:00,33.0,22.5,30.45,NW,317,1.0,11.0,65,0.00,,,0.00,Wunderground v.1.15,2013-04-21 06:42:00,
2013-04-21 02:47:00,32.9,22.4,30.46,North,351,10.0,11.0,65,0.00,,,0.00,Wunderground v.1.15,2013-04-21 06:47:00,
2013-04-21 02:52:00,32.8,22.3,30.46,North,360,1.0,9.0,65,0.00,,,0.00,Wunderground v.1.15,2013-04-21 06:52:00,
2013-04-21 02:57:00,32.8,22.3,30.46,NNE,25,3.0,9.0,65,0.00,,,0.00,Wunderground v.1.15,2013-04-21 06:57:00,
2013-04-21 03:02:00,32.7,22.2,30.46,NNW,345,3.0,6.0,65,0.00,,,0.00,Wunderground v.1.15,2013-04-21 07:02:00,
2013-04-21 03:07:00,32.6,22.1,30.46,NW,314,2.0,10.0,65,0.00,,,0.00,Wunderground v.1.15,2013-04-21 07:07:00,
2013-04-21 03:12:00,32.6,22.5,30.46,NW,315,3.0,7.0,66,0.00,,,0.00,Wunderground v.1.15,2013-04-21 07:12:00,
2013-04-21 03:17:00,32.7,22.2,30.46,WNW,290,3.0,8.0,65,0.00,,,0.00,Wunderground v.1.15,2013-04-21 07:17:00,
2013-04-21 03:22:00,32.8,22.3,30.47,NW,304,6.0,9.0,65,0.00,,,0.00,Wunderground v.1.15,2013-04-21 07:22:00,
2013-04-21 03:27:00,32.8,22.3,30.47,NNW,343,1.0,9.0,65,0.00,,,0.00,Wunderground v.1.15,2013-04-21 07:27:00,
2013-04-21 03:32:00,32.8,22.7,30.47,North,5,1.0,6.0,66,0.00,,,0.00,Wunderground v.1.15,2013-04-21 07:32:00,
2013-04-21 03:37:00,32.8,22.7,30.47,North,5,5.0,6.0,66,0.00,,,0.00,Wunderground v.1.15,2013-04-21 07:37:00,
2013-04-21 03:42:00,32.9,23.1,30.48,NNW,333,4.0,12.0,67,0.00,,,0.00,Wunderground v.1.15,2013-04-21 07:42:00,
2013-04-21 03:47:00,32.9,22.8,30.48,NNE,13,4.0,12.0,66,0.00,,,0.00,Wunderground v.1.15,2013-04-21 07:47:00,
2013-04-21 03:53:00,32.9,22.0,30.48,North,9,5.0,9.0,64,0.00,,,0.00,Wunderground v.1.15,2013-04-21 07:53:00,
2013-04-21 03:58:00,32.9,22.0,30.48,NNE,18,6.0,10.0,64,0.00,,,0.00,Wunderground v.1.15,2013-04-21 07:58:00,
2013-04-21 04:03:00,32.8,21.6,30.48,NNE,25,7.0,10.0,63,0.00,,,0.00,Wunderground v.1.15,2013-04-21 08:03:00,
2013-04-21 04:08:00,32.8,21.2,30.49,North,355,8.0,10.0,62,0.00,,,0.00,Wunderground v.1.15,2013-04-21 08:08:00,
2013-04-21 04:13:00,32.7,21.1,30.49,North,360,3.0,6.0,62,0.00,,,0.00,Wunderground v.1.15,2013-04-21 08:13:00,
2013-04-21 04:18:00,32.6,21.4,30.49,NNE,15,7.0,10.0,63,0.00,,,0.00,Wunderground v.1.15,2013-04-21 08:18:00,
2013-04-21 04:23:00,32.5,21.3,30.49,NNE,12,4.0,8.0,63,0.00,,,0.00,Wunderground v.1.15,2013-04-21 08:23:00,
2013-04-21 04:28:00,32.4,21.2,30.49,NNE,17,6.0,10.0,63,0.00,,,0.00,Wunderground v.1.15,2013-04-21 08:28:00,
2013-04-21 04:33:00,32.3,21.1,30.49,NNE,32,6.0,10.0,63,0.00,,,0.00,Wunderground v.1.15,2013-04-21 08:33:00,
2013-04-21 04:38:00,32.2,21.0,30.50,North,355,4.0,10.0,63,0.00,,,0.00,Wunderground v.1.15,2013-04-21 08:38:00,
2013-04-21 04:43:00,32.1,21.3,30.50,North,5,1.0,5.0,64,0.00,,,0.00,Wunderground v.1.15,2013-04-21 08:43:00,
2013-04-21 04:48:00,31.9,21.5,30.50,NNW,346,0.0,5.0,65,0.00,,,0.00,Wunderground v.1.15,2013-04-21 08:48:00,
2013-04-21 04:53:00,31.8,21.4,30.50,NNW,331,3.0,4.0,65,0.00,,,0.00,Wunderground v.1.15,2013-04-21 08:53:00,
2013-04-21 04:58:00,31.8,21.7,30.51,North,5,1.0,8.0,66,0.00,,,0.00,Wunderground v.1.15,2013-04-21 08:58:00,
2013-04-21 05:03:00,31.7,21.6,30.51,NNE,16,4.0,10.0,66,0.00,,,0.00,Wunderground v.1.15,2013-04-21 09:03:00,
2013-04-21 05:08:00,31.7,21.3,30.51,North,349,2.0,10.0,65,0.00,,,0.00,Wunderground v.1.15,2013-04-21 09:08:00,
2013-04-21 05:13:00,31.6,21.5,30.51,North,349,0.0,3.0,66,0.00,,,0.00,Wunderground v.1.15,2013-04-21 09:13:00,
2013-04-21 05:18:00,31.5,21.8,30.51,NNE,14,3.0,4.0,67,0.00,,,0.00,Wunderground v.1.15,2013-04-21 09:18:00,
2013-04-21 05:23:00,31.4,21.7,30.52,NNE,13,0.0,4.0,67,0.00,,,0.00,Wunderground v.1.15,2013-04-21 09:23:00,
2013-04-21 05:28:00,31.3,21.6,30.52,North,10,4.0,7.0,67,0.00,,,0.00,Wunderground v.1.15,2013-04-21 09:28:00,
2013-04-21 05:33:00,31.2,21.9,30.52,North,360,2.0,8.0,68,0.00,,,0.00,Wunderground v.1.15,2013-04-21 09:33:00,
2013-04-21 05:38:00,31.3,22.0,30.52,North,5,3.0,8.0,68,0.00,,,0.00,Wunderground v.1.15,2013-04-21 09:38:00,
2013-04-21 05:43:00,31.3,22.0,30.52,NNE,13,0.0,6.0,68,0.00,,,0.00,Wunderground v.1.15,2013-04-21 09:43:00,
2013-04-21 05:48:00,31.2,21.9,30.53,NNE,13,1.0,6.0,68,0.00,,,0.00,Wunderground v.1.15,2013-04-21 09:48:00,
2013-04-21 05:53:00,31.2,21.9,30.53,NNE,13,0.0,2.0,68,0.00,,,0.00,Wunderground v.1.15,2013-04-21 09:53:00,
2013-04-21 05:58:00,31.3,22.0,30.53,North,5,2.0,5.0,68,0.00,,,0.00,Wunderground v.1.15,2013-04-21 09:58:00,
2013-04-21 06:03:00,31.4,22.1,30.54,North,5,2.0,2.0,68,0.00,,,0.00,Wunderground v.1.15,2013-04-21 10:03:00,
2013-04-21 06:08:00,31.3,22.0,30.54,NW,308,1.0,3.0,68,0.00,,,0.00,Wunderground v.1.15,2013-04-21 10:08:00,
2013-04-21 06:13:00,31.4,22.4,30.55,North,5,5.0,6.0,69,0.00,,,0.00,Wunderground v.1.15,2013-04-21 10:13:00,
2013-04-21 06:18:00,31.4,22.1,30.55,NNE,28,1.0,6.0,68,0.00,,,0.00,Wunderground v.1.15,2013-04-21 10:18:00,
2013-04-21 06:23:00,31.5,22.1,30.55,NNE,28,1.0,3.0,68,0.00,,,0.00,Wunderground v.1.15,2013-04-21 10:23:00,
2013-04-21 06:28:00,31.5,22.5,30.55,NNE,28,4.0,4.0,69,0.00,,,0.00,Wunderground v.1.15,2013-04-21 10:28:00,
2013-04-21 06:33:00,31.6,22.2,30.55,NNE,17,4.0,5.0,68,0.00,,,0.00,Wunderground v.1.15,2013-04-21 10:33:00,
2013-04-21 06:38:00,31.7,22.3,30.55,North,360,1.0,5.0,68,0.00,,,0.00,Wunderground v.1.15,2013-04-21 10:38:00,
2013-04-21 06:44:00,31.9,22.5,30.56,NNE,13,3.0,5.0,68,0.00,,,0.00,Wunderground v.1.15,2013-04-21 10:44:00,
2013-04-21 06:48:00,32.0,22.6,30.56,NNE,19,5.0,5.0,68,0.00,,,0.00,Wunderground v.1.15,2013-04-21 10:48:00,
2013-04-21 06:54:00,32.3,22.6,30.56,North,11,1.0,7.0,67,0.00,,,0.00,Wunderground v.1.15,2013-04-21 10:54:00,
2013-04-21 06:59:00,32.6,22.8,30.56,NNE,12,3.0,7.0,67,0.00,,,0.00,Wunderground v.1.15,2013-04-21 10:59:00,
2013-04-21 07:04:00,33.0,22.9,30.57,North,5,3.0,5.0,66,0.00,,,0.00,Wunderground v.1.15,2013-04-21 11:04:00,
2013-04-21 07:09:00,33.2,23.1,30.57,NNE,16,6.0,7.0,66,0.00,,,0.00,Wunderground v.1.15,2013-04-21 11:09:00,
2013-04-21 07:14:00,33.2,23.4,30.57,NNE,18,4.0,5.0,67,0.00,,,0.00,Wunderground v.1.15,2013-04-21 11:14:00,
2013-04-21 07:19:00,33.3,23.5,30.58,North,9,1.0,5.0,67,0.00,,,0.00,Wunderground v.1.15,2013-04-21 11:19:00,
2013-04-21 07:24:00,33.7,24.3,30.58,North,360,4.0,7.0,68,0.00,,,0.00,Wunderground v.1.15,2013-04-21 11:24:00,
2013-04-21 07:29:00,34.1,24.6,30.58,NNE,15,7.0,10.0,68,0.00,,,0.00,Wunderground v.1.15,2013-04-21 11:29:00,
2013-04-21 07:34:00,34.2,24.4,30.59,NNE,17,8.0,10.0,67,0.00,,,0.00,Wunderground v.1.15,2013-04-21 11:34:00,
2013-04-21 07:39:00,34.2,24.7,30.59,North,355,4.0,10.0,68,0.00,,,0.00,Wunderground v.1.15,2013-04-21 11:39:00,
2013-04-21 07:44:00,34.7,24.9,30.59,NNE,22,8.0,10.0,67,0.00,,,0.00,Wunderground v.1.15,2013-04-21 11:44:00,
2013-04-21 07:49:00,35.2,24.6,30.59,North,355,4.0,10.0,65,0.00,,,0.00,Wunderground v.1.15,2013-04-21 11:49:00,
2013-04-21 07:54:00,35.1,24.9,30.60,ENE,57,5.0,11.0,66,0.00,,,0.00,Wunderground v.1.15,2013-04-21 11:54:00,
2013-04-21 07:59:00,34.9,25.0,30.60,ENE,75,7.0,11.0,67,0.00,,,0.00,Wunderground v.1.15,2013-04-21 11:59:00,
2013-04-21 08:04:00,34.8,25.3,30.60,North,5,6.0,8.0,68,0.00,,,0.00,Wunderground v.1.15,2013-04-21 12:04:00,
2013-04-21 08:09:00,34.7,24.5,30.60,NNE,17,8.0,11.0,66,0.00,,,0.00,Wunderground v.1.15,2013-04-21 12:09:00,
2013-04-21 08:14:00,35.0,25.1,30.61,NNE,20,8.0,8.0,67,0.00,,,0.00,Wunderground v.1.15,2013-04-21 12:14:00,
2013-04-21 08:19:00,35.5,25.3,30.61,NNE,26,3.0,8.0,66,0.00,,,0.00,Wunderground v.1.15,2013-04-21 12:19:00,
2013-04-21 08:24:00,36.0,25.7,30.61,ESE,111,7.0,12.0,66,0.00,,,0.00,Wunderground v.1.15,2013-04-21 12:24:00,
2013-04-21 08:29:00,36.2,25.6,30.62,NNE,22,6.0,13.0,65,0.00,,,0.00,Wunderground v.1.15,2013-04-21 12:29:00,
2013-04-21 08:34:00,36.4,25.4,30.62,East,90,5.0,9.0,64,0.00,,,0.00,Wunderground v.1.15,2013-04-21 12:34:00,
2013-04-21 08:39:00,36.8,26.1,30.62,North,5,9.0,12.0,65,0.00,,,0.00,Wunderground v.1.15,2013-04-21 12:39:00,
2013-04-21 08:44:00,36.9,25.9,30.63,NNE,15,9.0,10.0,64,0.00,,,0.00,Wunderground v.1.15,2013-04-21 12:44:00,
2013-04-21 08:49:00,36.5,25.5,30.63,NNE,15,6.0,12.0,64,0.00,,,0.00,Wunderground v.1.15,2013-04-21 12:49:00,
2013-04-21 08:54:00,36.1,25.1,30.63,NNE,15,8.0,10.0,64,0.00,,,0.00,Wunderground v.1.15,2013-04-21 12:54:00,
2013-04-21 08:59:00,35.7,25.1,30.63,NNE,16,5.0,10.0,65,0.00,,,0.00,Wunderground v.1.15,2013-04-21 12:59:00,
2013-04-21 09:04:00,35.5,25.3,30.63,North,9,5.0,13.0,66,0.00,,,0.00,Wunderground v.1.15,2013-04-21 13:04:00,
2013-04-21 09:09:00,35.5,25.3,30.64,NE,46,3.0,13.0,66,0.00,,,0.00,Wunderground v.1.15,2013-04-21 13:09:00,
2013-04-21 09:15:00,35.8,26.3,30.64,North,9,4.0,9.0,68,0.00,,,0.00,Wunderground v.1.15,2013-04-21 13:15:00,
2013-04-21 09:20:00,36.0,25.0,30.64,ENE,74,9.0,9.0,64,0.00,,,0.00,Wunderground v.1.15,2013-04-21 13:20:00,
2013-04-21 09:25:00,36.1,25.1,30.64,NNE,15,9.0,12.0,64,0.00,,,0.00,Wunderground v.1.15,2013-04-21 13:25:00,
2013-04-21 09:30:00,36.1,24.7,30.65,NE,48,0.0,7.0,63,0.00,,,0.00,Wunderground v.1.15,2013-04-21 13:30:00,
2013-04-21 09:35:00,36.2,25.9,30.65,East,79,5.0,7.0,66,0.00,,,0.00,Wunderground v.1.15,2013-04-21 13:35:00,
2013-04-21 09:40:00,37.0,27.1,30.65,NE,46,4.0,7.0,67,0.00,,,0.00,Wunderground v.1.15,2013-04-21 13:40:00,
2013-04-21 09:45:00,38.0,27.3,30.65,NE,54,7.0,10.0,65,0.00,,,0.00,Wunderground v.1.15,2013-04-21 13:45:00,
2013-04-21 09:50:00,38.4,25.7,30.65,East,82,5.0,6.0,60,0.00,,,0.00,Wunderground v.1.15,2013-04-21 13:50:00,
2013-04-21 09:55:00,38.4,24.9,30.65,NNE,27,3.0,7.0,58,0.00,,,0.00,Wunderground v.1.15,2013-04-21 13:55:00,
2013-04-21 10:00:00,38.4,25.3,30.66,NNE,20,7.0,7.0,59,0.00,,,0.00,Wunderground v.1.15,2013-04-21 14:00:00,
2013-04-21 10:05:00,37.8,25.5,30.66,North,355,3.0,7.0,61,0.00,,,0.00,Wunderground v.1.15,2013-04-21 14:05:00,
2013-04-21 10:10:00,37.7,25.8,30.66,North,355,6.0,7.0,62,0.00,,,0.00,Wunderground v.1.15,2013-04-21 14:10:00,
2013-04-21 10:15:00,37.8,26.7,30.66,ENE,62,5.0,8.0,64,0.00,,,0.00,Wunderground v.1.15,2013-04-21 14:15:00,
2013-04-21 10:20:00,38.7,27.2,30.66,NNE,19,1.0,6.0,63,0.00,,,0.00,Wunderground v.1.15,2013-04-21 14:20:00,
2013-04-21 10:25:00,39.7,26.9,30.66,NE,51,3.0,11.0,60,0.00,,,0.00,Wunderground v.1.15,2013-04-21 14:25:00,
2013-04-21 10:30:00,39.8,27.4,30.66,East,80,5.0,5.0,61,0.00,,,0.00,Wunderground v.1.15,2013-04-21 14:30:00,
2013-04-21 10:35:00,40.2,27.0,30.67,North,5,9.0,10.0,59,0.00,,,0.00,Wunderground v.1.15,2013-04-21 14:35:00,
2013-04-21 10:40:00,39.7,25.7,30.67,NNE,24,5.0,6.0,57,0.00,,,0.00,Wunderground v.1.15,2013-04-21 14:40:00,
2013-04-21 10:45:00,39.3,26.6,30.67,North,9,8.0,10.0,60,0.00,,,0.00,Wunderground v.1.15,2013-04-21 14:45:00,
2013-04-21 10:50:00,39.8,27.8,30.67,ENE,75,3.0,8.0,62,0.00,,,0.00,Wunderground v.1.15,2013-04-21 14:50:00,
2013-04-21 10:55:00,40.1,27.3,30.67,North,355,0.0,8.0,60,0.00,,,0.00,Wunderground v.1.15,2013-04-21 14:55:00,
2013-04-21 11:00:00,40.7,27.5,30.67,North,5,10.0,12.0,59,0.00,,,0.00,Wunderground v.1.15,2013-04-21 15:00:00,
2013-04-21 11:06:00,41.0,26.9,30.67,NNE,32,3.0,12.0,57,0.00,,,0.00,Wunderground v.1.15,2013-04-21 15:06:00,
2013-04-21 11:11:00,41.3,28.0,30.67,North,5,7.0,7.0,59,0.00,,,0.00,Wunderground v.1.15,2013-04-21 15:11:00,
2013-04-21 11:16:00,41.5,27.0,30.67,North,9,0.0,9.0,56,0.00,,,0.00,Wunderground v.1.15,2013-04-21 15:16:00,
2013-04-21 11:21:00,41.5,27.4,30.67,North,5,8.0,9.0,57,0.00,,,0.00,Wunderground v.1.15,2013-04-21 15:21:00,
2013-04-21 11:26:00,41.3,25.9,30.67,SSE,150,2.0,9.0,54,0.00,,,0.00,Wunderground v.1.15,2013-04-21 15:26:00,
2013-04-21 11:31:00,41.3,27.2,30.68,NNE,14,9.0,12.0,57,0.00,,,0.00,Wunderground v.1.15,2013-04-21 15:31:00,
2013-04-21 11:36:00,41.6,27.1,30.68,ENE,61,5.0,12.0,56,0.00,,,0.00,Wunderground v.1.15,2013-04-21 15:36:00,
2013-04-21 11:41:00,41.7,25.4,30.68,WNW,289,3.0,7.0,52,0.00,,,0.00,Wunderground v.1.15,2013-04-21 15:41:00,
2013-04-21 11:46:00,41.0,26.9,30.68,West,280,4.0,13.0,57,0.00,,,0.00,Wunderground v.1.15,2013-04-21 15:46:00,
2013-04-21 11:51:00,41.3,26.8,30.68,North,11,7.0,12.0,56,0.00,,,0.00,Wunderground v.1.15,2013-04-21 15:51:00,
2013-04-21 11:56:00,41.1,27.0,30.68,North,360,4.0,13.0,57,0.00,,,0.00,Wunderground v.1.15,2013-04-21 15:56:00,
2013-04-21 12:01:00,41.5,28.2,30.68,ENE,57,9.0,10.0,59,0.00,,,0.00,Wunderground v.1.15,2013-04-21 16:01:00,
2013-04-21 12:06:00,41.8,28.1,30.68,NNE,26,5.0,11.0,58,0.00,,,0.00,Wunderground v.1.15,2013-04-21 16:06:00,
2013-04-21 12:12:00,41.8,26.4,30.68,East,94,3.0,11.0,54,0.00,,,0.00,Wunderground v.1.15,2013-04-21 16:12:00,
2013-04-21 12:17:00,41.8,26.8,30.68,East,79,6.0,11.0,55,0.00,,,0.00,Wunderground v.1.15,2013-04-21 16:17:00,
2013-04-21 12:22:00,41.7,26.7,30.68,ENE,67,2.0,14.0,55,0.00,,,0.00,Wunderground v.1.15,2013-04-21 16:22:00,
2013-04-21 12:27:00,41.8,25.9,30.68,North,360,7.0,14.0,53,0.00,,,0.00,Wunderground v.1.15,2013-04-21 16:27:00,
2013-04-21 12:32:00,41.9,24.6,30.68,NNE,17,13.0,13.0,50,0.00,,,0.00,Wunderground v.1.15,2013-04-21 16:32:00,
2013-04-21 12:37:00,41.7,24.9,30.68,North,5,11.0,13.0,51,0.00,,,0.00,Wunderground v.1.15,2013-04-21 16:37:00,
2013-04-21 12:42:00,42.0,27.0,30.67,NNE,19,10.0,13.0,55,0.00,,,0.00,Wunderground v.1.15,2013-04-21 16:42:00,
2013-04-21 12:47:00,42.4,26.9,30.67,NNE,25,9.0,13.0,54,0.00,,,0.00,Wunderground v.1.15,2013-04-21 16:47:00,
2013-04-21 12:52:00,42.5,26.1,30.67,ENE,78,7.0,14.0,52,0.00,,,0.00,Wunderground v.1.15,2013-04-21 16:52:00,
2013-04-21 12:57:00,42.4,26.5,30.67,North,5,7.0,14.0,53,0.00,,,0.00,Wunderground v.1.15,2013-04-21 16:57:00,
2013-04-21 13:02:00,41.9,25.5,30.67,NNE,28,7.0,9.0,52,0.00,,,0.00,Wunderground v.1.15,2013-04-21 17:02:00,
2013-04-21 13:07:00,42.1,26.2,30.67,ENE,63,10.0,14.0,53,0.00,,,0.00,Wunderground v.1.15,2013-04-21 17:07:00,
2013-04-21 13:12:00,42.2,25.3,30.67,East,94,5.0,11.0,51,0.00,,,0.00,Wunderground v.1.15,2013-04-21 17:12:00,
2013-04-21 13:18:00,41.9,24.1,30.67,NE,45,6.0,12.0,49,0.00,,,0.00,Wunderground v.1.15,2013-04-21 17:18:00,
2013-04-21 13:23:00,41.6,24.8,30.67,ENE,73,8.0,13.0,51,0.00,,,0.00,Wunderground v.1.15,2013-04-21 17:23:00,
2013-04-21 13:28:00,42.1,25.7,30.67,NNE,30,6.0,14.0,52,0.00,,,0.00,Wunderground v.1.15,2013-04-21 17:28:00,
2013-04-21 13:33:00,42.4,26.5,30.67,NNE,12,10.0,12.0,53,0.00,,,0.00,Wunderground v.1.15,2013-04-21 17:33:00,
2013-04-21 13:38:00,42.2,25.3,30.67,North,355,10.0,12.0,51,0.00,,,0.00,Wunderground v.1.15,2013-04-21 17:38:00,
2013-04-21 13:43:00,42.4,26.9,30.67,North,5,6.0,13.0,54,0.00,,,0.00,Wunderground v.1.15,2013-04-21 17:43:00,
2013-04-21 13:48:00,42.6,25.2,30.67,North,355,8.0,14.0,50,0.00,,,0.00,Wunderground v.1.15,2013-04-21 17:48:00,
2013-04-21 13:53:00,42.6,23.2,30.67,NNE,15,12.0,12.0,46,0.00,,,0.00,Wunderground v.1.15,2013-04-21 17:53:00,
2013-04-21 13:58:00,42.5,23.2,30.67,NNE,31,7.0,12.0,46,0.00,,,0.00,Wunderground v.1.15,2013-04-21 17:58:00,
2013-04-21 14:03:00,42.3,24.0,30.67,East,80,6.0,13.0,48,0.00,,,0.00,Wunderground v.1.15,2013-04-21 18:03:00,
2013-04-21 14:08:00,42.6,22.7,30.67,ENE,74,8.0,13.0,45,0.00,,,0.00,Wunderground v.1.15,2013-04-21 18:08:00,
2013-04-21 14:13:00,42.9,23.0,30.67,North,5,4.0,8.0,45,0.00,,,0.00,Wunderground v.1.15,2013-04-21 18:13:00,
2013-04-21 14:18:00,42.9,23.5,30.67,NW,325,4.0,12.0,46,0.00,,,0.00,Wunderground v.1.15,2013-04-21 18:18:00,
2013-04-21 14:23:00,43.0,23.6,30.66,North,10,8.0,12.0,46,0.00,,,0.00,Wunderground v.1.15,2013-04-21 18:23:00,
2013-04-21 14:28:00,43.1,22.1,30.66,North,9,7.0,12.0,43,0.00,,,0.00,Wunderground v.1.15,2013-04-21 18:28:00,
2013-04-21 14:33:00,42.6,22.7,30.66,ENE,66,3.0,9.0,45,0.00,,,0.00,Wunderground v.1.15,2013-04-21 18:33:00,
2013-04-21 14:38:00,42.6,22.7,30.66,NE,44,8.0,11.0,45,0.00,,,0.00,Wunderground v.1.15,2013-04-21 18:38:00,
2013-04-21 14:43:00,42.5,24.2,30.66,ENE,75,13.0,13.0,48,0.00,,,0.00,Wunderground v.1.15,2013-04-21 18:43:00,
2013-04-21 14:48:00,43.1,24.2,30.66,East,85,6.0,13.0,47,0.00,,,0.00,Wunderground v.1.15,2013-04-21 18:48:00,
2013-04-21 14:53:00,43.3,22.3,30.66,North,5,6.0,13.0,43,0.00,,,0.00,Wunderground v.1.15,2013-04-21 18:53:00,
2013-04-21 14:58:00,43.3,24.4,30.66,NE,36,6.0,13.0,47,0.00,,,0.00,Wunderground v.1.15,2013-04-21 18:58:00,
2013-04-21 15:03:00,43.3,22.3,30.66,North,9,4.0,12.0,43,0.00,,,0.00,Wunderground v.1.15,2013-04-21 19:03:00,
2013-04-21 15:08:00,43.0,23.1,30.65,East,80,10.0,13.0,45,0.00,,,0.00,Wunderground v.1.15,2013-04-21 19:08:00,
2013-04-21 15:13:00,43.2,24.3,30.65,ENE,68,7.0,11.0,47,0.00,,,0.00,Wunderground v.1.15,2013-04-21 19:13:00,
2013-04-21 15:18:00,43.0,23.6,30.65,ENE,67,5.0,13.0,46,0.00,,,0.00,Wunderground v.1.15,2013-04-21 19:18:00,
2013-04-21 15:23:00,43.1,22.6,30.65,NNE,13,4.0,13.0,44,0.00,,,0.00,Wunderground v.1.15,2013-04-21 19:23:00,
2013-04-21 15:28:00,42.9,21.4,30.64,NNE,13,10.0,13.0,42,0.00,,,0.00,Wunderground v.1.15,2013-04-21 19:28:00,
2013-04-21 15:33:00,43.1,23.2,30.65,North,9,10.0,10.0,45,0.00,,,0.00,Wunderground v.1.15,2013-04-21 19:33:00,
2013-04-21 15:38:00,43.4,22.9,30.64,NE,36,10.0,13.0,44,0.00,,,0.00,Wunderground v.1.15,2013-04-21 19:38:00,
2013-04-21 15:43:00,43.4,23.4,30.64,North,5,6.0,13.0,45,0.00,,,0.00,Wunderground v.1.15,2013-04-21 19:43:00,
2013-04-21 15:49:00,43.7,24.2,30.64,East,82,8.0,14.0,46,0.00,,,0.00,Wunderground v.1.15,2013-04-21 19:49:00,
2013-04-21 15:54:00,43.6,23.6,30.64,NNE,18,6.0,11.0,45,0.00,,,0.00,Wunderground v.1.15,2013-04-21 19:54:00,
2013-04-21 15:59:00,43.6,23.6,30.63,NNE,23,10.0,12.0,45,0.00,,,0.00,Wunderground v.1.15,2013-04-21 19:59:00,
2013-04-21 16:04:00,43.4,21.8,30.63,ENE,71,7.0,12.0,42,0.00,,,0.00,Wunderground v.1.15,2013-04-21 20:04:00,
2013-04-21 16:09:00,43.0,21.4,30.63,East,96,9.0,12.0,42,0.00,,,0.00,Wunderground v.1.15,2013-04-21 20:09:00,
2013-04-21 16:14:00,43.5,23.0,30.62,North,9,3.0,9.0,44,0.00,,,0.00,Wunderground v.1.15,2013-04-21 20:14:00,
2013-04-21 16:19:00,43.5,21.9,30.62,East,81,3.0,11.0,42,0.00,,,0.00,Wunderground v.1.15,2013-04-21 20:19:00,
2013-04-21 16:24:00,43.2,22.2,30.62,ENE,70,4.0,15.0,43,0.00,,,0.00,Wunderground v.1.15,2013-04-21 20:24:00,
2013-04-21 16:29:00,43.3,21.1,30.62,NNE,17,9.0,15.0,41,0.00,,,0.00,Wunderground v.1.15,2013-04-21 20:29:00,
2013-04-21 16:34:00,43.4,22.4,30.62,NE,40,3.0,13.0,43,0.00,,,0.00,Wunderground v.1.15,2013-04-21 20:34:00,
2013-04-21 16:39:00,43.4,18.2,30.62,NNE,12,9.0,13.0,36,0.00,,,0.00,Wunderground v.1.15,2013-04-21 20:39:00,
2013-04-21 16:44:00,43.3,20.0,30.62,NE,40,3.0,11.0,39,0.00,,,0.00,Wunderground v.1.15,2013-04-21 20:44:00,
2013-04-21 16:49:00,43.5,18.9,30.61,NNE,19,9.0,12.0,37,0.00,,,0.00,Wunderground v.1.15,2013-04-21 20:49:00,
2013-04-21 16:54:00,43.0,20.3,30.61,North,355,7.0,11.0,40,0.00,,,0.00,Wunderground v.1.15,2013-04-21 20:54:00,
2013-04-21 16:59:00,42.9,20.2,30.61,ENE,63,9.0,11.0,40,0.00,,,0.00,Wunderground v.1.15,2013-04-21 20:59:00,
2013-04-21 17:04:00,42.9,20.2,30.61,North,5,9.0,11.0,40,0.00,,,0.00,Wunderground v.1.15,2013-04-21 21:04:00,
2013-04-21 17:09:00,43.1,20.4,30.61,ESE,104,7.0,11.0,40,0.00,,,0.00,Wunderground v.1.15,2013-04-21 21:09:00,
2013-04-21 17:14:00,42.8,21.3,30.61,North,355,4.0,11.0,42,0.00,,,0.00,Wunderground v.1.15,2013-04-21 21:14:00,
2013-04-21 17:19:00,42.9,20.8,30.61,NNE,13,2.0,11.0,41,0.00,,,0.00,Wunderground v.1.15,2013-04-21 21:19:00,
2013-04-21 17:24:00,42.9,20.8,30.62,ENE,75,7.0,10.0,41,0.00,,,0.00,Wunderground v.1.15,2013-04-21 21:24:00,
2013-04-21 17:29:00,43.1,19.8,30.62,ENE,78,4.0,10.0,39,0.00,,,0.00,Wunderground v.1.15,2013-04-21 21:29:00,
2013-04-21 17:34:00,43.1,19.8,30.61,ENE,75,3.0,11.0,39,0.00,,,0.00,Wunderground v.1.15,2013-04-21 21:34:00,
2013-04-21 17:39:00,43.2,18.6,30.61,East,86,7.0,11.0,37,0.00,,,0.00,Wunderground v.1.15,2013-04-21 21:39:00,
2013-04-21 17:44:00,43.1,20.4,30.61,NNE,13,7.0,10.0,40,0.00,,,0.00,Wunderground v.1.15,2013-04-21 21:44:00,
2013-04-21 17:49:00,43.1,21.5,30.61,ENE,78,10.0,10.0,42,0.00,,,0.00,Wunderground v.1.15,2013-04-21 21:49:00,
2013-04-21 17:54:00,43.2,19.3,30.61,East,88,9.0,13.0,38,0.00,,,0.00,Wunderground v.1.15,2013-04-21 21:54:00,
2013-04-21 17:59:00,43.2,20.5,30.62,East,82,9.0,13.0,40,0.00,,,0.00,Wunderground v.1.15,2013-04-21 21:59:00,
2013-04-21 18:04:00,42.9,17.7,30.61,ENE,78,7.0,12.0,36,0.00,,,0.00,Wunderground v.1.15,2013-04-21 22:04:00,
2013-04-21 18:09:00,42.6,17.5,30.62,SSE,148,5.0,12.0,36,0.00,,,0.00,Wunderground v.1.15,2013-04-21 22:09:00,
2013-04-21 18:14:00,42.4,17.3,30.62,ENE,77,9.0,11.0,36,0.00,,,0.00,Wunderground v.1.15,2013-04-21 22:14:00,
2013-04-21 18:19:00,42.1,18.3,30.62,East,94,5.0,11.0,38,0.00,,,0.00,Wunderground v.1.15,2013-04-21 22:19:00,
2013-04-21 18:25:00,42.2,16.5,30.61,NE,37,3.0,12.0,35,0.00,,,0.00,Wunderground v.1.15,2013-04-21 22:25:00,
2013-04-21 18:30:00,42.2,17.1,30.61,ENE,67,7.0,7.0,36,0.00,,,0.00,Wunderground v.1.15,2013-04-21 22:30:00,
2013-04-21 18:35:00,42.3,16.6,30.61,East,100,6.0,9.0,35,0.00,,,0.00,Wunderground v.1.15,2013-04-21 22:35:00,
2013-04-21 18:40:00,42.2,15.1,30.61,East,80,9.0,9.0,33,0.00,,,0.00,Wunderground v.1.15,2013-04-21 22:40:00,
2013-04-21 18:45:00,42.0,14.9,30.61,ENE,69,7.0,9.0,33,0.00,,,0.00,Wunderground v.1.15,2013-04-21 22:45:00,
2013-04-21 18:50:00,41.9,15.5,30.62,ENE,74,4.0,6.0,34,0.00,,,0.00,Wunderground v.1.15,2013-04-21 22:50:00,
2013-04-21 18:55:00,41.6,15.3,30.61,ENE,76,3.0,9.0,34,0.00,,,0.00,Wunderground v.1.15,2013-04-21 22:55:00,
2013-04-21 19:00:00,41.3,12.1,30.61,East,86,5.0,7.0,30,0.00,,,0.00,Wunderground v.1.15,2013-04-21 23:00:00,
2013-04-21 19:05:00,41.1,14.8,30.61,NE,46,3.0,9.0,34,0.00,,,0.00,Wunderground v.1.15,2013-04-21 23:05:00,
2013-04-21 19:10:00,40.8,14.6,30.61,East,82,5.0,6.0,34,0.00,,,0.00,Wunderground v.1.15,2013-04-21 23:10:00,
2013-04-21 19:15:00,40.5,15.0,30.61,ENE,76,5.0,11.0,35,0.00,,,0.00,Wunderground v.1.15,2013-04-21 23:15:00,
2013-04-21 19:20:00,40.4,15.5,30.61,ENE,76,4.0,6.0,36,0.00,,,0.00,Wunderground v.1.15,2013-04-21 23:20:00,
2013-04-21 19:25:00,40.2,16.6,30.61,East,89,7.0,10.0,38,0.00,,,0.00,Wunderground v.1.15,2013-04-21 23:25:00,
2013-04-21 19:30:00,39.9,17.5,30.61,East,81,5.0,5.0,40,0.00,,,0.00,Wunderground v.1.15,2013-04-21 23:30:00,
2013-04-21 19:35:00,39.6,17.8,30.61,ENE,65,5.0,9.0,41,0.00,,,0.00,Wunderground v.1.15,2013-04-21 23:35:00,
2013-04-21 19:40:00,39.2,18.0,30.61,ENE,78,5.0,5.0,42,0.00,,,0.00,Wunderground v.1.15,2013-04-21 23:40:00,
2013-04-21 19:45:00,38.9,19.3,30.61,ENE,70,3.0,7.0,45,0.00,,,0.00,Wunderground v.1.15,2013-04-21 23:45:00,
2013-04-21 19:50:00,38.6,19.6,30.61,NNE,32,3.0,3.0,46,0.00,,,0.00,Wunderground v.1.15,2013-04-21 23:50:00,
2013-04-21 19:55:00,38.2,19.7,30.61,NE,34,1.0,5.0,47,0.00,,,0.00,Wunderground v.1.15,2013-04-21 23:55:00,
2013-04-21 20:00:00,37.8,20.3,30.62,ENE,65,0.0,2.0,49,0.00,,,0.00,Wunderground v.1.15,2013-04-22 00:00:00,
2013-04-21 20:05:00,37.5,20.5,30.62,NE,51,2.0,3.0,50,0.00,,,0.00,Wunderground v.1.15,2013-04-22 00:05:00,
2013-04-21 20:10:00,37.1,20.6,30.62,NE,35,2.0,2.0,51,0.00,,,0.00,Wunderground v.1.15,2013-04-22 00:10:00,
2013-04-21 20:15:00,36.9,20.9,30.62,NE,35,2.0,3.0,52,0.00,,,0.00,Wunderground v.1.15,2013-04-22 00:15:00,
2013-04-21 20:20:00,36.5,21.4,30.62,ENE,69,2.0,2.0,54,0.00,,,0.00,Wunderground v.1.15,2013-04-22 00:20:00,
2013-04-21 20:25:00,36.2,22.0,30.63,ENE,69,2.0,3.0,56,0.00,,,0.00,Wunderground v.1.15,2013-04-22 00:25:00,
2013-04-21 20:30:00,35.9,22.1,30.63,ENE,69,1.0,2.0,57,0.00,,,0.00,Wunderground v.1.15,2013-04-22 00:30:00,
2013-04-21 20:35:00,35.6,22.7,30.63,ENE,69,3.0,3.0,59,0.00,,,0.00,Wunderground v.1.15,2013-04-22 00:35:00,
2013-04-21 20:40:00,35.2,22.3,30.63,ENE,69,1.0,2.0,59,0.00,,,0.00,Wunderground v.1.15,2013-04-22 00:40:00,
2013-04-21 20:45:00,35.0,22.5,30.63,ENE,69,1.0,2.0,60,0.00,,,0.00,Wunderground v.1.15,2013-04-22 00:45:00,
2013-04-21 20:50:00,34.7,23.0,30.63,ENE,69,1.0,1.0,62,0.00,,,0.00,Wunderground v.1.15,2013-04-22 00:50:00,
2013-04-21 20:55:00,34.4,23.1,30.63,ENE,69,0.0,3.0,63,0.00,,,0.00,Wunderground v.1.15,2013-04-22 00:55:00,
2013-04-21 21:00:00,34.1,22.8,30.64,ENE,69,0.0,1.0,63,0.00,,,0.00,Wunderground v.1.15,2013-04-22 01:00:00,
2013-04-21 21:05:00,33.9,23.4,30.63,ENE,69,1.0,2.0,65,0.00,,,0.00,Wunderground v.1.15,2013-04-22 01:05:00,
2013-04-21 21:10:00,33.6,23.1,30.64,ENE,69,1.0,2.0,65,0.00,,,0.00,Wunderground v.1.15,2013-04-22 01:10:00,
2013-04-21 21:15:00,33.5,23.4,30.63,ENE,69,3.0,3.0,66,0.00,,,0.00,Wunderground v.1.15,2013-04-22 01:15:00,
2013-04-21 21:20:00,33.3,23.2,30.64,ENE,69,0.0,2.0,66,0.00,,,0.00,Wunderground v.1.15,2013-04-22 01:20:00,
2013-04-21 21:25:00,33.2,23.1,30.63,ENE,69,1.0,3.0,66,0.00,,,0.00,Wunderground v.1.15,2013-04-22 01:25:00,
2013-04-21 21:30:00,33.2,23.4,30.63,ENE,69,2.0,2.0,67,0.00,,,0.00,Wunderground v.1.15,2013-04-22 01:30:00,
2013-04-21 21:35:00,33.1,23.7,30.63,ENE,78,1.0,4.0,68,0.00,,,0.00,Wunderground v.1.15,2013-04-22 01:35:00,
2013-04-21 21:40:00,33.0,23.6,30.64,ENE,78,3.0,3.0,68,0.00,,,0.00,Wunderground v.1.15,2013-04-22 01:40:00,
2013-04-21 21:45:00,32.9,23.5,30.63,East,81,0.0,5.0,68,0.00,,,0.00,Wunderground v.1.15,2013-04-22 01:45:00,
2013-04-21 21:50:00,32.8,23.0,30.63,East,81,2.0,2.0,67,0.00,,,0.00,Wunderground v.1.15,2013-04-22 01:50:00,
2013-04-21 21:55:00,32.7,22.9,30.63,East,81,0.0,2.0,67,0.00,,,0.00,Wunderground v.1.15,2013-04-22 01:55:00,
2013-04-21 22:00:00,32.6,22.5,30.63,East,81,1.0,2.0,66,0.00,,,0.00,Wunderground v.1.15,2013-04-22 02:00:00,
2013-04-21 22:05:00,32.7,22.2,30.63,ESE,118,0.0,4.0,65,0.00,,,0.00,Wunderground v.1.15,2013-04-22 02:05:00,
2013-04-21 22:10:00,32.9,22.8,30.63,ENE,76,0.0,2.0,66,0.00,,,0.00,Wunderground v.1.15,2013-04-22 02:10:00,
2013-04-21 22:15:00,33.1,23.0,30.63,East,91,1.0,4.0,66,0.00,,,0.00,Wunderground v.1.15,2013-04-22 02:15:00,
2013-04-21 22:20:00,33.2,23.1,30.63,East,91,1.0,2.0,66,0.00,,,0.00,Wunderground v.1.15,2013-04-22 02:20:00,
2013-04-21 22:25:00,33.2,23.1,30.63,East,91,2.0,2.0,66,0.00,,,0.00,Wunderground v.1.15,2013-04-22 02:25:00,
2013-04-21 22:30:00,33.2,23.1,30.63,ENE,74,0.0,2.0,66,0.00,,,0.00,Wunderground v.1.15,2013-04-22 02:30:00,
2013-04-21 22:35:00,33.3,23.5,30.63,ENE,78,2.0,3.0,67,0.00,,,0.00,Wunderground v.1.15,2013-04-22 02:35:00,
2013-04-21 22:40:00,33.3,23.5,30.63,East,89,1.0,1.0,67,0.00,,,0.00,Wunderground v.1.15,2013-04-22 02:40:00,
2013-04-21 22:45:00,33.3,23.5,30.63,East,89,1.0,3.0,67,0.00,,,0.00,Wunderground v.1.15,2013-04-22 02:45:00,
2013-04-21 22:50:00,33.2,23.8,30.62,East,89,0.0,1.0,68,0.00,,,0.00,Wunderground v.1.15,2013-04-22 02:50:00,
2013-04-21 22:55:00,33.0,23.6,30.62,East,89,0.0,1.0,68,0.00,,,0.00,Wunderground v.1.15,2013-04-22 02:55:00,
2013-04-21 23:00:00,32.9,23.5,30.62,East,89,0.0,0.0,68,0.00,,,0.00,Wunderground v.1.15,2013-04-22 03:00:00,
2013-04-21 23:05:00,32.8,23.7,30.62,East,89,0.0,1.0,69,0.00,,,0.00,Wunderground v.1.15,2013-04-22 03:05:00,
2013-04-21 23:10:00,32.7,23.3,30.62,East,89,0.0,0.0,68,0.00,,,0.00,Wunderground v.1.15,2013-04-22 03:10:00,
2013-04-21 23:15:00,32.6,23.2,30.62,East,90,0.0,2.0,68,0.00,,,0.00,Wunderground v.1.15,2013-04-22 03:15:00,
2013-04-21 23:21:00,32.7,23.3,30.62,East,90,2.0,2.0,68,0.00,,,0.00,Wunderground v.1.15,2013-04-22 03:21:00,
2013-04-21 23:26:00,32.8,23.7,30.61,East,90,0.0,2.0,69,0.00,,,0.00,Wunderground v.1.15,2013-04-22 03:26:00,
2013-04-21 23:31:00,33.0,23.2,30.61,East,96,0.0,2.0,67,0.00,,,0.00,Wunderground v.1.15,2013-04-22 03:31:00,
2013-04-21 23:36:00,33.2,23.1,30.61,East,101,1.0,3.0,66,0.00,,,0.00,Wunderground v.1.15,2013-04-22 03:36:00,
2013-04-21 23:41:00,33.3,23.2,30.61,ESE,109,1.0,1.0,66,0.00,,,0.00,Wunderground v.1.15,2013-04-22 03:41:00,
2013-04-21 23:46:00,33.5,23.0,30.61,ESE,115,1.0,6.0,65,0.00,,,0.00,Wunderground v.1.15,2013-04-22 03:46:00,
2013-04-21 23:51:00,33.6,22.7,30.61,ESE,115,0.0,1.0,64,0.00,,,0.00,Wunderground v.1.15,2013-04-22 03:51:00,
2013-04-21 23:56:00,33.5,22.6,30.61,ESE,115,1.0,2.0,64,0.00,,,0.00,Wunderground v.1.15,2013-04-22 03:56:00,